• In Hungary
  • List of Countries
  • For 7 days
  • Water Temperature
  • Satellite Maps
  • Weather Map
  • News
  • Weather Widgets
  • user-avatar
    Login

    Hourly Weather Niecew

    Today, 24 November, Friday

    Time Temperature Precipitation Wind Pressure Humidity
    00:00 +2°C° 0 mm 3 mps 735 mmHg 87%
    01:00 +2°C° 0 mm 2 mps 735 mmHg 86%
    02:00 +2°C° 0 mm 2 mps 735 mmHg 85%
    03:00 +3°C° 0 mm 2 mps 735 mmHg 85%
    04:00 +3°C° 0 mm 2 mps 735 mmHg 85%
    05:00 +3°C° 0 mm 2 mps 735 mmHg 85%
    06:00 +3°C° 0 mm 2 mps 735 mmHg 85%
    07:00 +3°C° 0 mm 1 mps 735 mmHg 84%
    08:00 +4°C° 0 mm 2 mps 735 mmHg 80%
    09:00 +6°C° 0 mm 2 mps 736 mmHg 76%
    10:00 +7°C° 0 mm 2 mps 736 mmHg 73%
    11:00 +8°C° 0 mm 2 mps 736 mmHg 72%
    12:00 +9°C° 0 mm 2 mps 735 mmHg 71%
    13:00 +10°C° 0 mm 2 mps 735 mmHg 70%
    14:00 +9°C° 0 mm 2 mps 735 mmHg 75%
    15:00 +8°C° 0 mm 3 mps 735 mmHg 81%
    16:00 +7°C° 0 mm 3 mps 735 mmHg 86%
    17:00 +7°C° 0 mm 3 mps 735 mmHg 87%
    18:00 +5°C° 0 mm 3 mps 735 mmHg 88%
    19:00 +5°C° 0 mm 3 mps 735 mmHg 89%
    20:00 +5°C° 0 mm 3 mps 735 mmHg 88%
    21:00 +5°C° 0 mm 3 mps 735 mmHg 88%
    22:00 +5°C° 0 mm 3 mps 736 mmHg 88%
    23:00 +5°C° 0 mm 3 mps 736 mmHg 88%

    Tomorrow, 25 November, Saturday

    Time Temperature Precipitation Wind Pressure Humidity
    00:00 +5°C° 0 mm 3 mps 736 mmHg 87%
    01:00 +5°C° 0 mm 3 mps 735 mmHg 87%
    02:00 +5°C° 0 mm 3 mps 735 mmHg 88%
    03:00 +5°C° 0 mm 3 mps 735 mmHg 89%
    04:00 +5°C° 0 mm 3 mps 735 mmHg 90%
    05:00 +5°C° 0 mm 3 mps 734 mmHg 90%
    06:00 +5°C° 0 mm 3 mps 734 mmHg 90%
    07:00 +5°C° 0 mm 4 mps 734 mmHg 90%
    08:00 +6°C° 0 mm 4 mps 733 mmHg 86%
    09:00 +7°C° 0 mm 5 mps 733 mmHg 82%
    10:00 +8°C° 0 mm 5 mps 733 mmHg 77%
    11:00 +8°C° 0 mm 6 mps 732 mmHg 76%
    12:00 +8°C° 0 mm 6 mps 731 mmHg 74%
    13:00 +8°C° 0 mm 7 mps 731 mmHg 73%
    14:00 +8°C° 0 mm 6 mps 730 mmHg 75%
    15:00 +7°C° 0 mm 6 mps 730 mmHg 77%
    16:00 +7°C° 0 mm 5 mps 730 mmHg 79%
    17:00 +7°C° 0 mm 5 mps 729 mmHg 80%
    18:00 +7°C° 0 mm 5 mps 729 mmHg 80%
    19:00 +7°C° 0 mm 5 mps 729 mmHg 81%
    20:00 +7°C° 0.1 mm 5 mps 729 mmHg 82%
    21:00 +7°C° 0.1 mm 4 mps 729 mmHg 82%
    22:00 +7°C° 0.1 mm 4 mps 729 mmHg 83%
    23:00 +7°C° 0 mm 4 mps 730 mmHg 85%

    Day after tomorrow, 26 November, Sunday

    Time Temperature Precipitation Wind Pressure Humidity
    00:00 +7°C° 0 mm 3 mps 730 mmHg 86%
    01:00 +7°C° 0 mm 2 mps 730 mmHg 88%
    02:00 +7°C° 0.2 mm 2 mps 730 mmHg 89%
    03:00 +7°C° 0.2 mm 2 mps 731 mmHg 89%
    04:00 +6°C° 0.2 mm 2 mps 731 mmHg 90%
    05:00 +6°C° 1.1 mm 2 mps 732 mmHg 90%
    06:00 +4°C° 1.1 mm 3 mps 732 mmHg 89%
    07:00 +4°C° 1.1 mm 3 mps 733 mmHg 88%
    08:00 +4°C° 0.7 mm 3 mps 733 mmHg 87%
    09:00 +4°C° 0.7 mm 3 mps 734 mmHg 86%
    10:00 +3°C° 0.7 mm 3 mps 734 mmHg 85%
    11:00 +3°C° 0.5 mm 4 mps 734 mmHg 85%
    12:00 +3°C° 0.5 mm 4 mps 734 mmHg 84%
    13:00 +3°C° 0.5 mm 4 mps 735 mmHg 84%
    14:00 +3°C° 0.5 mm 4 mps 735 mmHg 84%
    15:00 +2°C° 0.5 mm 3 mps 735 mmHg 84%
    16:00 +2°C° 0.5 mm 3 mps 735 mmHg 84%
    17:00 +2°C° 0.2 mm 3 mps 736 mmHg 85%
    18:00 +2°C° 0.2 mm 3 mps 736 mmHg 85%
    19:00 +1°C° 0.2 mm 3 mps 736 mmHg 86%
    20:00 +1°C° 0.1 mm 3 mps 737 mmHg 87%
    21:00 +1°C° 0.1 mm 3 mps 737 mmHg 87%
    22:00 0°C° 0.1 mm 4 mps 737 mmHg 88%
    23:00 0°C° 0 mm 3 mps 737 mmHg 88%

    27 November, Monday

    Time Temperature Precipitation Wind Pressure Humidity
    00:00 0°C° 0 mm 3 mps 738 mmHg 89%
    01:00 -1°C° 0 mm 3 mps 738 mmHg 90%
    02:00 -1°C° 0 mm 3 mps 738 mmHg 90%
    03:00 -1°C° 0 mm 3 mps 738 mmHg 90%
    04:00 -1°C° 0 mm 3 mps 738 mmHg 90%
    05:00 -1°C° 0 mm 3 mps 738 mmHg 90%
    06:00 -2°C° 0 mm 3 mps 739 mmHg 90%
    07:00 -2°C° 0 mm 2 mps 739 mmHg 91%
    08:00 -1°C° 0 mm 3 mps 739 mmHg 86%
    09:00 0°C° 0 mm 3 mps 739 mmHg 81%
    10:00 +1°C° 0 mm 3 mps 739 mmHg 77%
    11:00 +1°C° 0 mm 3 mps 739 mmHg 75%
    12:00 +2°C° 0 mm 3 mps 739 mmHg 73%
    13:00 +2°C° 0 mm 3 mps 739 mmHg 71%
    14:00 +1°C° 0 mm 3 mps 739 mmHg 76%
    15:00 +2°C° 0 mm 2 mps 739 mmHg 80%
    16:00 +1°C° 0 mm 2 mps 739 mmHg 85%
    17:00 +1°C° 0 mm 2 mps 739 mmHg 86%
    18:00 -1°C° 0 mm 2 mps 739 mmHg 87%
    19:00 +1°C° 0 mm 1 mps 739 mmHg 88%
    20:00 +1°C° 0 mm 1 mps 739 mmHg 88%
    21:00 +1°C° 0 mm 1 mps 739 mmHg 88%
    22:00 +1°C° 0 mm 1 mps 739 mmHg 88%
    23:00 +1°C° 0 mm 1 mps 739 mmHg 88%

    28 November, Tuesday

    Time Temperature Precipitation Wind Pressure Humidity
    00:00 0°C° 0 mm 1 mps 738 mmHg 89%
    01:00 0°C° 0 mm 1 mps 738 mmHg 89%
    02:00 0°C° 0 mm 1 mps 738 mmHg 89%
    03:00 0°C° 0 mm 1 mps 737 mmHg 89%
    04:00 -1°C° 0 mm 1 mps 737 mmHg 90%
    05:00 -1°C° 0 mm 1 mps 737 mmHg 89%
    06:00 -1°C° 0 mm 1 mps 737 mmHg 89%
    07:00 -1°C° 0 mm 1 mps 737 mmHg 89%
    08:00 0°C° 0 mm 1 mps 736 mmHg 83%
    09:00 +2°C° 0 mm 1 mps 736 mmHg 77%
    10:00 +2°C° 0 mm 2 mps 736 mmHg 71%
    11:00 +3°C° 0 mm 2 mps 735 mmHg 68%
    12:00 +4°C° 0 mm 1 mps 735 mmHg 65%
    13:00 +5°C° 0 mm 1 mps 734 mmHg 62%
    14:00 +4°C° 0 mm 1 mps 734 mmHg 68%
    15:00 +2°C° 0 mm 2 mps 733 mmHg 74%
    16:00 -1°C° 0 mm 2 mps 733 mmHg 80%
    17:00 -1°C° 0 mm 2 mps 733 mmHg 81%
    18:00 -2°C° 0 mm 2 mps 733 mmHg 82%
    19:00 -2°C° 0 mm 2 mps 733 mmHg 83%
    20:00 -2°C° 0 mm 2 mps 732 mmHg 82%
    21:00 -2°C° 0 mm 2 mps 732 mmHg 81%
    22:00 -2°C° 0 mm 2 mps 732 mmHg 80%
    23:00 -2°C° 0 mm 2 mps 731 mmHg 79%

    29 November, Wednesday

    Time Temperature Precipitation Wind Pressure Humidity
    00:00 -2°C° 0 mm 2 mps 731 mmHg 77%
    01:00 -2°C° 0 mm 2 mps 731 mmHg 76%
    02:00 -2°C° 0 mm 2 mps 731 mmHg 75%
    03:00 -2°C° 0 mm 2 mps 730 mmHg 74%
    04:00 -2°C° 0 mm 2 mps 730 mmHg 73%
    05:00 -2°C° 0 mm 2 mps 730 mmHg 73%
    06:00 -2°C° 0 mm 3 mps 730 mmHg 72%
    07:00 -2°C° 0 mm 3 mps 729 mmHg 72%
    08:00 -1°C° 0 mm 3 mps 729 mmHg 68%
    09:00 0°C° 0 mm 3 mps 729 mmHg 65%
    10:00 0°C° 0 mm 4 mps 729 mmHg 61%
    11:00 0°C° 0 mm 4 mps 729 mmHg 61%
    12:00 +1°C° 0 mm 4 mps 729 mmHg 60%
    13:00 +1°C° 0 mm 4 mps 728 mmHg 60%
    14:00 0°C° 0 mm 4 mps 728 mmHg 65%
    15:00 0°C° 0 mm 3 mps 728 mmHg 71%
    16:00 -1°C° 0 mm 3 mps 728 mmHg 76%
    17:00 -1°C° 0 mm 3 mps 728 mmHg 79%
    18:00 -1°C° 0 mm 3 mps 729 mmHg 82%
    19:00 -2°C° 0 mm 3 mps 729 mmHg 85%
    20:00 -2°C° 0 mm 3 mps 729 mmHg 85%
    21:00 -2°C° 0 mm 2 mps 729 mmHg 85%
    22:00 -2°C° 0 mm 2 mps 729 mmHg 86%
    23:00 -1°C° 0.1 mm 2 mps 729 mmHg 85%
    Show more